INMARSAT 3-F4

导读 | 星芒AI

INMARSAT 3-F4 是国际海事卫星组织(Inmarsat)第三代卫星系列中的一颗通信卫星,于2005年由阿丽亚娜5号火箭发射。它位于东经64.5度的轨道位置,主要为亚太地区提供移动卫星通信服务,支持海事、航空和陆地用户的语音与数据传输。该卫星采用L频段和C频段,具备高可靠性和广泛覆盖能力,是Inmarsat全球移动卫星通信网络的重要组成部分。

基本信息
目录编号:
24819
目录名称:
INMARSAT 3-F4
国际标识:
1997-027A
轨道中心:
EARTH
卫星名称:
INMARSAT 3-F4
卫星全名:
--
卫星状态:
在轨 (已飞行10420 天)
发射日期:
1997-06-03 UTC
国别 :
(IM)
星等 :
--
轨道信息
数据来源 国际轨道数据
星历时间: 2025-12-12T15:01:39+0800
1天前
查看轨道信息
半长轴: 42382.489km
偏心率: 0.0004994
轨道倾角: 11.184°
近地点辐角 67.231°
升交点赤经 39.245°
平近点角 282.412°
近地点: 35983.188km
远地点: 36025.52km
周期: 1447.236分钟
每日圈数: 0.995
详细信息
使用方式:
暂无
2D轨道图
3D轨道图
轨道高度分析图
轨道倾角分析图
轨道综合分析图
查看轨道综合分析图